User: anonymous   Login
Location: Unspecified
(0.0000°N, 0.0000°E)
Time: 22:50:56
(UTC+00:00)
Language:

FALCON 9 R/B - Orbit

View from above orbital plane
View from above orbital plane
View from above satellite
View from above satellite

Ground track
Ground track

The orbit data is extracted from the following two-line orbital elements,

1 39271U 13055G   18294.86082109  .00004184  00000-0  10374-3 0  9999
2 39271  80.9702 194.6283 0609853 181.0854 178.9068 14.42828544263395
Epoch (UTC): 21 October 2018 20:39:34
Eccentricity: 0.0609853
inclination: 80.9702°
perigee height: 314 km
apogee height: 1184 km
right ascension of ascending node: 194.6283°
argument of perigee: 181.0854°
revolutions per day: 14.42828544
mean anomaly at epoch: 178.9068°
orbit number at epoch: 26339

The dashed part of the orbit path shows where the satellite is in the earth's shadow,  

DLR